Location: Arcones
(41.1182°N, 3.7238°W)
Time: 12:06:31
(UTC+00:00)

MOS 1 Rocket - Visible Passes

Search period start: 15 March 2026 00:00
Search period end: 25 March 2026 00:00
Orbit: 609 x 813 km, 97.4° (Epoch: 14 March)

Date Brightness Start Highest point End Pass type
(mag) Time Alt. Az. Time Alt. Az. Time Alt. Az.
15 Mar 5.7 05:32:06 10° NNE 05:36:42 31° E 05:41:22 10° SSE visible
17 Mar 5.9 05:25:08 10° NE 05:29:35 28° E 05:34:06 10° SSE visible
18 Mar 7.1 18:59:30 10° W 19:00:23 10° W 19:01:17 10° WNW visible
19 Mar 6.1 05:18:11 10° NE 05:22:27 25° E 05:26:45 10° SSE visible
20 Mar 6.8 18:51:08 10° WSW 18:53:09 13° W 18:55:12 10° WNW visible
21 Mar 6.4 05:11:17 10° NE 05:15:18 22° E 05:19:21 10° SE visible
23 Mar 6.5 05:04:25 10° NE 05:08:08 19° E 05:11:52 10° SE visible
